TimeCDT,TemperatureF,Dew PointF,Humidity,Sea Level PressureIn,VisibilityMPH,Wind Direction,Wind SpeedMPH,Gust SpeedMPH,PrecipitationIn,Events,Conditions,WindDirDegrees,DateUTC
12:53 AM,87.1,30.9,13,29.65,6.0,SSW,20.7,27.6,N/A,,Widespread Dust,200,2013-05-18 05:53:00
1:53 AM,86.0,41.0,20,29.67,10.0,SSW,24.2,34.5,N/A,,Mostly Cloudy,200,2013-05-18 06:53:00
2:53 AM,82.9,42.1,24,29.64,10.0,SSW,24.2,32.2,N/A,,Mostly Cloudy,200,2013-05-18 07:53:00
3:53 AM,80.1,43.0,27,29.65,10.0,SSW,19.6,28.8,N/A,,Scattered Clouds,200,2013-05-18 08:53:00
4:53 AM,73.9,43.0,33,29.65,10.0,South,12.7,-,N/A,,Partly Cloudy,190,2013-05-18 09:53:00
5:53 AM,75.9,48.0,37,29.65,10.0,SSW,16.1,-,N/A,,Scattered Clouds,210,2013-05-18 10:53:00
6:53 AM,73.9,51.1,45,29.67,10.0,SW,13.8,-,N/A,,Scattered Clouds,220,2013-05-18 11:53:00
7:53 AM,75.0,55.0,50,29.69,10.0,SW,17.3,-,N/A,,Scattered Clouds,230,2013-05-18 12:53:00
8:53 AM,79.0,57.0,47,29.69,10.0,SW,20.7,26.5,N/A,,Scattered Clouds,220,2013-05-18 13:53:00
9:53 AM,82.0,53.1,37,29.70,10.0,WSW,15.0,21.9,N/A,,Scattered Clouds,240,2013-05-18 14:53:00
10:53 AM,87.1,48.9,27,29.69,10.0,SW,13.8,-,N/A,,Scattered Clouds,220,2013-05-18 15:53:00
11:53 AM,91.0,44.1,20,29.67,10.0,SSW,10.4,17.3,N/A,,Mostly Cloudy,210,2013-05-18 16:53:00
12:53 PM,93.9,36.0,13,29.64,10.0,SSW,12.7,20.7,N/A,,Scattered Clouds,210,2013-05-18 17:53:00
1:53 PM,93.2,24.8,9,29.81,10.0,SSE,6.9,17.3,N/A,,Mostly Cloudy,160,2013-05-18 18:53:00
2:53 PM,96.1,28.0,9,29.58,10.0,SW,10.4,19.6,N/A,,Mostly Cloudy,220,2013-05-18 19:53:00
3:53 PM,100.0,24.1,7,29.56,10.0,SW,20.7,26.5,N/A,,Scattered Clouds,220,2013-05-18 20:53:00
4:53 PM,98.1,25.0,7,29.54,10.0,SSW,20.7,28.8,N/A,,Scattered Clouds,210,2013-05-18 21:53:00
5:53 PM,97.0,24.1,7,29.52,10.0,SW,19.6,26.5,N/A,,Scattered Clouds,220,2013-05-18 22:53:00
6:41 PM,96.8,19.4,6,29.69,10.0,West,16.1,24.2,N/A,,Scattered Clouds,270,2013-05-18 23:41:00
6:53 PM,96.1,18.0,6,29.50,10.0,WSW,18.4,29.9,N/A,,Scattered Clouds,240,2013-05-18 23:53:00
7:53 PM,93.0,16.0,6,29.51,10.0,WSW,21.9,-,N/A,,Partly Cloudy,240,2013-05-19 00:53:00
8:53 PM,87.1,15.1,7,29.53,10.0,WSW,13.8,-,N/A,,Partly Cloudy,240,2013-05-19 01:53:00
9:53 PM,84.9,17.1,8,29.54,10.0,SW,18.4,-,N/A,,Partly Cloudy,230,2013-05-19 02:53:00
10:53 PM,80.1,18.0,10,29.57,10.0,SW,11.5,-,N/A,,Clear,230,2013-05-19 03:53:00
11:53 PM,80.1,18.0,10,29.57,10.0,SW,17.3,-,N/A,,Clear,230,2013-05-19 04:53:00